Location: Unspecified
(0.0000°N, 0.0000°E)
Time: 04:56:15
(UTC+00:00)

Vanguard 1 Rocket - All Passes

Search period start: 10 December 2016 00:00
Search period end: 20 December 2016 00:00
Orbit: 650 x 4227 km, 34.3° (Epoch: 08 December)

Date Brightness Start Highest point End Pass type
(mag) Time Alt. Az. Time Alt. Az. Time Alt. Az.
10 Dec - 01:19:44 10° WNW 01:25:29 35° SW 01:29:40 10° SSE night (unlit)
10 Dec - 08:46:07 10° S 08:54:00 20° SE 09:05:31 10° E daylight
10 Dec - 11:08:23 10° SW 11:23:15 67° SE 11:48:26 10° ENE daylight
10 Dec - 13:35:59 10° WSW 13:56:03 57° NW 14:21:40 10° NE daylight
10 Dec - 16:13:37 10° WNW 16:33:26 27° NNW 16:51:03 10° NNE daylight
10 Dec - 19:02:03 10° NW 19:13:02 16° N 19:21:22 10° NNE visible
10 Dec - 21:37:01 10° NNW 21:47:04 24° NNE 21:53:22 10° ENE visible
11 Dec - 00:06:16 10° NW 00:14:49 87° SW 00:19:48 10° SE night (unlit)
11 Dec - 09:57:54 10° SSW 10:09:51 44° SE 10:30:40 10° ENE daylight
11 Dec - 12:23:01 10° WSW 12:40:27 76° NW 13:07:06 10° NE daylight
11 Dec - 14:55:20 10° W 15:16:03 36° NNW 15:37:53 10° NNE daylight
11 Dec - 17:40:50 10° NW 17:55:56 18° N 18:07:51 10° NNE daylight
11 Dec - 20:22:18 10° NNW 20:33:11 19° NNE 20:40:33 10° NE visible
11 Dec - 22:52:50 10° NW 23:03:25 50° NNE 23:09:13 10° ESE visible
12 Dec - 01:23:50 10° W 01:28:32 21° SW 01:32:10 10° S night (unlit)
12 Dec - 08:48:25 10° S 08:57:08 25° SE 09:10:58 10° E daylight
12 Dec - 11:11:20 10° SW 11:25:54 80° SE 11:51:22 10° NE daylight
12 Dec - 13:39:52 10° W 13:59:18 48° NNW 14:24:05 10° NE daylight
12 Dec - 16:19:22 10° WNW 16:37:59 23° NNW 16:54:23 10° NNE daylight
12 Dec - 19:05:28 10° NNW 19:17:53 18° N 19:26:50 10° NE visible
12 Dec - 21:38:59 10° NW 21:51:01 33° NNE 21:57:52 10° E visible
13 Dec - 00:09:27 10° WNW 00:17:55 55° SW 00:22:56 10° SE night (unlit)
13 Dec - 07:41:46 10° SSE 07:44:35 11° SE 07:47:50 10° SE daylight
13 Dec - 10:00:39 10° SW 10:12:31 55° SE 10:34:18 10° ENE daylight
13 Dec - 12:26:26 10° WSW 12:43:26 64° NW 13:09:32 10° NE daylight
13 Dec - 15:00:18 10° WNW 15:20:03 31° NNW 15:40:41 10° NNE daylight
13 Dec - 17:45:59 10° NW 18:01:00 19° N 18:12:36 10° NE daylight
13 Dec - 20:24:18 10° NNW 20:37:28 25° NNE 20:45:36 10° ENE visible
13 Dec - 22:55:23 10° NW 23:06:50 74° NE 23:12:49 10° ESE visible
14 Dec - 01:28:54 10° WSW 01:31:35 13° SW 01:33:55 10° SSW night (unlit)
14 Dec - 08:50:53 10° SSW 09:00:03 32° SE 09:15:41 10° E daylight
14 Dec - 11:14:28 10° SW 11:28:41 86° NW 11:54:02 10° NE daylight
14 Dec - 13:44:06 10° W 14:02:51 40° NNW 14:26:34 10° NE daylight
14 Dec - 16:25:11 10° NW 16:42:52 21° NNW 16:58:14 10° NNE daylight
14 Dec - 19:08:15 10° NNW 19:22:33 21° N 19:32:14 10° NE visible
14 Dec - 21:41:08 10° NW 21:54:45 46° NNE 22:01:56 10° E visible
15 Dec - 00:13:01 10° WNW 00:20:54 36° SW 00:25:48 10° SSE night (unlit)
15 Dec - 07:42:39 10° S 07:47:56 16° SE 07:55:06 10° ESE daylight
15 Dec - 10:03:32 10° SW 10:15:12 68° SE 10:37:30 10° ENE daylight
15 Dec - 12:30:09 10° WSW 12:46:40 53° NNW 13:11:52 10° NE daylight
15 Dec - 15:05:40 10° WNW 15:24:28 26° NNW 15:43:48 10° NNE daylight
15 Dec - 17:50:16 10° NW 18:06:02 20° N 18:17:49 10° NE visible
15 Dec - 20:26:21 10° NW 20:41:31 33° NNE 20:50:12 10° E visible
15 Dec - 22:58:13 10° WNW 23:10:01 78° SW 23:16:08 10° SE visible
16 Dec - 08:53:31 10° SSW 09:02:48 41° SE 09:19:49 10° ENE daylight
16 Dec - 11:17:47 10° WSW 11:31:41 72° NW 11:56:30 10° NE daylight
16 Dec - 13:48:43 10° W 14:06:45 34° NNW 14:29:10 10° NE daylight
16 Dec - 16:30:41 10° NW 16:48:00 21° N 17:02:43 10° NE daylight
16 Dec - 19:10:40 10° NNW 19:26:59 26° NNE 19:37:21 10° ENE visible
16 Dec - 21:43:27 10° NW 21:58:16 63° NNE 22:05:41 10° ESE visible
17 Dec - 00:17:05 10° W 00:23:48 24° SW 00:28:21 10° S night (unlit)
17 Dec - 07:44:35 10° S 07:51:01 21° SE 08:00:45 10° E daylight
17 Dec - 10:06:36 10° SW 10:17:59 83° SE 10:40:22 10° NE daylight
17 Dec - 12:34:10 10° W 12:50:11 44° NNW 13:14:12 10° NE daylight
17 Dec - 15:11:15 10° WNW 15:29:16 24° NNW 15:47:23 10° NE daylight
17 Dec - 17:53:46 10° NW 18:10:53 23° N 18:23:11 10° NE visible
17 Dec - 20:28:26 10° NW 20:45:22 43° NNE 20:54:24 10° E visible
17 Dec - 23:01:23 10° WNW 23:13:01 55° SW 23:19:12 10° SE visible
18 Dec - 08:56:18 10° SSW 09:05:31 53° SE 09:23:25 10° ENE daylight
18 Dec - 11:21:21 10° WSW 11:34:54 59° NNW 11:58:49 10° NE daylight
18 Dec - 13:53:44 10° WNW 14:11:02 29° NNW 14:32:00 10° NE daylight
18 Dec - 16:35:32 10° NW 16:53:10 21° N 17:07:45 10° NE daylight
18 Dec - 19:12:55 10° NW 19:31:10 33° NNE 19:42:04 10° E visible
18 Dec - 21:46:01 10° NW 22:01:33 84° NE 22:09:08 10° SE visible
19 Dec - 00:21:56 10° W 00:26:45 16° SW 00:30:25 10° S night (unlit)
19 Dec - 07:46:56 10° SSW 07:53:54 28° SE 08:05:32 10° E daylight
19 Dec - 10:09:50 10° WSW 10:20:57 81° NW 10:42:58 10° NE daylight
19 Dec - 12:38:31 10° W 12:54:00 36° NNW 13:16:35 10° NE daylight
19 Dec - 15:16:47 10° NW 15:34:21 22° N 15:51:34 10° NE daylight
19 Dec - 17:56:41 10° NW 18:15:30 27° NNE 18:28:23 10° ENE visible
19 Dec - 20:30:38 10° NW 20:48:58 57° NNE 20:58:16 10° ESE visible
19 Dec - 23:04:55 10° WNW 23:15:53 39° SW 23:22:03 10° SSE visible
